Shaw AFB, SC

1:24 PM EST on November 24, 2017 (GMT -0500)
Shaw Air Force Base

Weather History for KSSC - December, 2012

Change the Weather History Date:

Friday, December 7, 2012

  Actual Average Record
Temperature  
Mean Temperature 54 °F -  
Max Temperature 59 °F 57 °F 80 °F (1998)
Min Temperature 48 °F 37 °F 21 °F (2010)
Degree Days  
Heating Degree Days 12    
Growing Degree Days 4 (Base 50)    
Moisture  
Dew Point 41 °F    
Average Humidity 64    
Maximum Humidity 90    
Minimum Humidity 50    
Precipitation  
Precipitation 0.00 in - - ()
Sea Level Pressure  
Sea Level Pressure 30.07 in    
Wind  
Wind Speed 7 mph (NNE)    
Max Wind Speed 10 mph    
Max Gust Speed -    
Visibility 10 miles    
Events      
Averages and records for this station are not official NWS values.
T = Trace of Precipitation, MM = Missing Value Source: NWS Daily Summary

Daily Weather History Graph

Daily Weather History Graph

Search for Another Location

Airport or City:

Trip Planner

Search our weather history database for the weather conditions in past years. The results will help you decide how hot, cold, wet, or windy it might be!

Date:

Astronomy

Dec. 07, 2012 Rise Set
Actual Time 7:14 AM EST 5:12 PM EST
Civil Twilight 6:46 AM EST 5:40 PM EST
Nautical Twilight 6:15 AM EST 6:11 PM EST
Astronomical Twilight 5:45 AM EST 6:41 PM EST
Moon 12:47 AM EST (12/7) 12:55 PM EST (12/7)
Length of Visible Light 10h 53m
Length of Day
9h 58m
Last Quarter, 39% of the Moon is Illuminated
Dec 7
Last Quarter
Dec 13
New
Dec 20
First Quarter
Dec 28
Full
Jan 4
Last Quarter

Hourly Weather History & Observations

Time (EST) Temp. Dew Point Humidity Pressure Visibility Wind Dir Wind Speed Gust Speed Precip Events Conditions
12:55 AM 49.3 °F 32.9 °F 53% 30.16 in 10.0 mi NNE 10.4 mph - N/A   Overcast
1:55 AM 49.1 °F 32.0 °F 52% 30.14 in 10.0 mi NE 10.4 mph - N/A   Overcast
2:23 AM 50.0 °F 32.0 °F 50% 30.14 in 10.0 mi NE 9.2 mph - N/A   Overcast
2:55 AM 49.1 °F 32.9 °F 54% 30.14 in 10.0 mi NE 8.1 mph - N/A   Overcast
3:55 AM 49.1 °F 33.6 °F 55% 30.12 in 10.0 mi NNE 9.2 mph - N/A   Overcast
4:55 AM 48.9 °F 34.0 °F 56% 30.11 in 10.0 mi NNE 9.2 mph - N/A   Overcast
5:55 AM 49.1 °F 34.7 °F 58% 30.12 in 10.0 mi NNE 9.2 mph - N/A   Overcast
6:55 AM 49.3 °F 35.2 °F 58% 30.12 in 10.0 mi NNE 9.2 mph - N/A   Overcast
7:55 AM 49.6 °F 35.6 °F 59% 30.12 in 10.0 mi NNE 9.2 mph - N/A   Overcast
8:55 AM 50.9 °F 37.2 °F 59% 30.12 in 10.0 mi NNE 6.9 mph - N/A   Overcast
9:55 AM 51.8 °F 39.2 °F 62% 30.13 in 10.0 mi NE 6.9 mph - N/A   Overcast
10:55 AM 53.8 °F 39.6 °F 59% 30.11 in 10.0 mi North 8.1 mph - N/A   Overcast
11:55 AM 55.8 °F 40.8 °F 57% 30.07 in 10.0 mi NNE 4.6 mph - N/A   Overcast
12:55 PM 57.2 °F 42.4 °F 58% 30.04 in 10.0 mi NNE 4.6 mph - N/A   Overcast
1:21 PM 59.0 °F 42.8 °F 55% 30.03 in 10.0 mi Variable 6.9 mph - N/A   Overcast
1:55 PM 58.5 °F 43.0 °F 56% 30.03 in 10.0 mi NNW 4.6 mph - N/A   Overcast
2:55 PM 58.3 °F 44.2 °F 60% 30.01 in 10.0 mi North 5.8 mph - N/A   Overcast
3:55 PM 58.6 °F 45.3 °F 61% 30.00 in 10.0 mi NNE 3.5 mph - N/A   Overcast
4:55 PM 57.9 °F 44.4 °F 61% 30.01 in 10.0 mi NE 3.5 mph - N/A   Overcast
5:55 PM 57.2 °F 46.0 °F 66% 30.02 in 10.0 mi NNE 3.5 mph - N/A   Overcast
6:55 PM 56.1 °F 45.3 °F 67% 30.03 in 10.0 mi NW 5.8 mph - N/A   Overcast
7:55 PM 54.3 °F 45.7 °F 73% 30.02 in 10.0 mi Calm Calm - N/A   Overcast
8:09 PM 53.6 °F 46.4 °F 77% 30.03 in 10.0 mi NNW 3.5 mph - N/A   Overcast
8:43 PM 53.6 °F 46.4 °F 77% 30.03 in 10.0 mi Calm Calm - N/A   Overcast
8:55 PM 53.8 °F 45.9 °F 75% 30.02 in 10.0 mi NW 3.5 mph - N/A   Overcast
9:40 PM 51.8 °F 46.4 °F 82% 30.02 in 10.0 mi Calm Calm - N/A   Scattered Clouds
9:55 PM 51.8 °F 45.9 °F 80% 30.02 in 10.0 mi Calm Calm - N/A   Partly Cloudy
10:55 PM 50.4 °F 46.0 °F 85% 30.03 in 10.0 mi WNW 3.5 mph - N/A   Clear
11:55 PM 49.5 °F 46.8 °F 90% 30.03 in 10.0 mi Calm Calm - N/A   Clear